Location: Poughquag
(41.6090°N, 73.6820°W)
Time: 23:08:02
(UTC-04:00)

Transit 2A - All Passes

Search period start: 12 July 2024 00:00
Search period end: 22 July 2024 00:00
Orbit: 591 x 960 km, 66.7° (Epoch: 12 July)

Date Brightness Start Highest point End Pass type
(mag) Time Alt. Az. Time Alt. Az. Time Alt. Az.
12 Jul - 09:45:51 10° SSE 09:49:16 18° ESE 09:52:56 10° ENE daylight
12 Jul - 11:26:39 10° SW 11:31:43 61° WNW 11:37:25 10° NNE daylight
12 Jul - 13:13:29 10° WNW 13:16:14 14° NNW 13:19:05 10° N daylight
12 Jul - 18:29:45 10° N 18:34:49 25° NE 18:39:56 10° E daylight
12 Jul - 20:12:17 10° NNW 20:18:38 74° WSW 20:24:53 10° SSE daylight
12 Jul - 21:58:45 10° W 22:00:46 12° W 22:02:46 10° WSW visible
13 Jul - 09:12:39 10° ESE 09:14:21 12° E 09:16:06 10° E daylight
13 Jul - 10:51:19 10° SSW 10:56:25 89° WNW 11:02:10 10° NNE daylight
13 Jul - 12:36:53 10° W 12:40:31 18° NW 12:44:23 10° N daylight
13 Jul - 17:54:49 10° N 17:59:12 19° NE 18:03:37 10° E daylight
13 Jul - 19:37:00 10° NNW 19:43:22 81° ENE 19:49:40 10° SSE daylight
13 Jul - 21:21:46 10° WNW 21:25:49 18° WSW 21:29:50 10° SW visible
14 Jul - 10:16:12 10° SSW 10:21:12 62° ESE 10:26:49 10° NE daylight
14 Jul - 12:00:37 10° W 12:04:53 24° NW 12:09:29 10° N daylight
14 Jul - 17:20:03 10° N 17:23:30 15° NE 17:26:59 10° ENE daylight
14 Jul - 19:01:46 10° NNW 19:08:01 59° NE 19:14:14 10° SE daylight
14 Jul - 20:45:43 10° NW 20:50:49 26° WSW 20:55:52 10° SSW daylight
15 Jul - 09:41:20 10° S 09:46:04 41° ESE 09:51:20 10° NE daylight
15 Jul - 11:24:38 10° WSW 11:29:20 32° NW 11:34:30 10° NNE daylight
15 Jul - 16:45:36 10° N 16:47:44 12° NNE 16:49:52 10° NE daylight
15 Jul - 18:26:37 10° NNW 18:32:37 43° NE 18:38:35 10° ESE daylight
15 Jul - 20:10:00 10° NW 20:15:45 37° WSW 20:21:25 10° S daylight
16 Jul - 09:06:45 10° SSE 09:11:01 27° ESE 09:15:40 10° NE daylight
16 Jul - 10:48:52 10° SW 10:53:51 44° NW 10:59:24 10° NNE daylight
16 Jul - 12:37:14 10° NW 12:38:43 11° NNW 12:40:14 10° NNW daylight
16 Jul - 17:51:32 10° NNW 17:57:08 32° NE 18:02:44 10° ESE daylight
16 Jul - 19:34:27 10° NW 19:40:37 54° WSW 19:46:40 10° S daylight
17 Jul - 08:32:37 10° SE 08:36:02 18° ESE 08:39:41 10° ENE daylight
17 Jul - 10:13:19 10° SW 10:18:27 63° WNW 10:24:13 10° NNE daylight
17 Jul - 12:00:02 10° WNW 12:02:56 14° NW 12:05:59 10° N daylight
17 Jul - 17:16:31 10° N 17:21:34 24° NE 17:26:39 10° E daylight
17 Jul - 18:59:04 10° NNW 19:05:25 76° WSW 19:11:39 10° SSE daylight
17 Jul - 20:45:20 10° W 20:47:34 12° W 20:49:45 10° WSW daylight
18 Jul - 07:59:29 10° ESE 08:01:07 11° E 08:02:47 10° E daylight
18 Jul - 09:38:00 10° SSW 09:43:09 89° ESE 09:48:57 10° NNE daylight
18 Jul - 11:23:28 10° W 11:27:14 18° NW 11:31:15 10° N daylight
18 Jul - 16:41:36 10° N 16:45:57 19° NE 16:50:18 10° E daylight
18 Jul - 18:23:45 10° NNW 18:30:09 79° ENE 18:36:25 10° SSE daylight
18 Jul - 20:08:28 10° WNW 20:12:37 18° WSW 20:16:42 10° SW daylight
19 Jul - 09:02:53 10° SSW 09:07:56 61° ESE 09:13:36 10° NE daylight
19 Jul - 10:47:14 10° W 10:51:36 24° NW 10:56:20 10° N daylight
19 Jul - 16:06:50 10° N 16:10:14 15° NE 16:13:40 10° ENE daylight
19 Jul - 17:48:32 10° NNW 17:54:48 57° NE 18:00:58 10° SE daylight
19 Jul - 19:32:27 10° NW 19:37:36 27° WSW 19:42:40 10° SSW daylight
20 Jul - 08:28:01 10° S 08:32:48 40° ESE 08:38:06 10° NE daylight
20 Jul - 10:11:15 10° WSW 10:16:03 33° NW 10:21:19 10° NNE daylight
20 Jul - 15:32:25 10° N 15:34:27 11° NNE 15:36:30 10° NE daylight
20 Jul - 17:13:23 10° NNW 17:19:23 42° NE 17:25:18 10° ESE daylight
20 Jul - 18:56:44 10° NW 19:02:32 38° WSW 19:08:12 10° S daylight
21 Jul - 07:53:28 10° SSE 07:57:45 27° ESE 08:02:25 10° NE daylight
21 Jul - 09:35:30 10° SW 09:40:34 45° NW 09:46:12 10° NNE daylight
21 Jul - 11:23:38 10° NW 11:25:25 11° NNW 11:27:15 10° N daylight
21 Jul - 16:38:18 10° NNW 16:43:53 31° NE 16:49:25 10° ESE daylight
21 Jul - 18:21:13 10° NW 18:27:23 55° WSW 18:33:26 10° S daylight
